Weather History for Phuket, Thailand

Change the Weather History Date:

Tuesday, July 10, 2012

  Actual Average Record
Temperature  
Mean Temperature 80 °F -  
Max Temperature 86 °F 88 °F 93 °F (2002)
Min Temperature 73 °F 78 °F 71 °F (2013)
Cooling Degree Days 14    
Growing Degree Days 30 (Base 50)    
Moisture  
Dew Point 74 °F    
Average Humidity 82    
Maximum Humidity 97    
Minimum Humidity 66    
Precipitation  
Precipitation 0.28 in 0.37 in - ()
Sea Level Pressure  
Sea Level Pressure 29.80 in    
Wind  
Wind Speed 5 mph ()    
Max Wind Speed 21 mph    
Max Gust Speed 25 mph    
Visibility 4.7 miles    
Events Rain    
Averages and records for this station are not official NWS values.
T = Trace of Precipitation, MM = Missing Value Source: Averaged Metar Reports

Daily Weather History Graph

Daily Weather History Graph

Search for Another Location

Airport:

Trip Planner

Search our weather history database for the weather conditions in past years. The results will help you decide how hot, cold, wet, or windy it might be!

Date:

Astronomy

Jul. 10, 2012 Rise Set
Actual Time 6:15 AM ICT 6:49 PM ICT
Civil Twilight 5:52 AM ICT 7:11 PM ICT
Nautical Twilight 5:25 AM ICT 7:38 PM ICT
Astronomical Twilight 4:58 AM ICT 8:05 PM ICT
Moon 11:53 PM ICT (7/10) 11:41 AM ICT (7/10)
Length of Visible Light 13h 19m
Length of Day
12h 33m
Waning Gibbous, 59% of the Moon is Illuminated
Jul 10
Waning Gibbous
Jul 11
Last Quarter
Jul 19
New
Jul 26
First Quarter
Aug 2
Full

Hourly Weather History & Observations

Time (ICT) Temp. Heat Index Dew Point Humidity Pressure Visibility Wind Dir Wind Speed Gust Speed Precip Events Conditions
12:00 AM 75.2 °F - 73.4 °F 94% 29.86 in 5.0 mi Calm Calm - N/A   Mostly Cloudy
12:30 AM 75.2 °F - 73.4 °F 94% 29.83 in 5.0 mi Calm Calm - N/A   Mostly Cloudy
1:00 AM 76 °F - 75 °F 94% 29.79 in 6 mi Calm Calm - -   Mist
1:00 AM 75.2 °F - 73.4 °F 94% 29.83 in 5.0 mi Calm Calm - N/A   Mostly Cloudy
1:30 AM 75.2 °F - 73.4 °F 94% 29.83 in 5.0 mi Calm Calm - N/A   Mostly Cloudy
2:00 AM 75.2 °F - 73.4 °F 94% 29.80 in 5.0 mi Calm Calm - N/A   Mostly Cloudy
2:30 AM 75.2 °F - 73.4 °F 94% 29.80 in 5.0 mi Calm Calm - N/A   Mostly Cloudy
3:30 AM 75.2 °F - 73.4 °F 94% 29.80 in 5.0 mi Calm Calm - N/A   Mostly Cloudy
4:00 AM 77.0 °F - 75.2 °F 94% 29.80 in 5.0 mi Calm Calm - N/A   Mostly Cloudy
5:30 AM 75.2 °F - 73.4 °F 94% 29.80 in 3.1 mi Calm Calm - N/A Rain Light Rain
6:00 AM 75.2 °F - 73.4 °F 94% 29.83 in 3.1 mi Calm Calm - N/A Rain Light Rain
6:30 AM 75.2 °F - 73.4 °F 94% 29.83 in 3.1 mi Calm Calm - N/A Rain Light Rain
7:00 AM 76 °F - 75 °F 97% 29.79 in 6 mi Calm Calm - - Rain Light Rain
7:00 AM 75.2 °F - 73.4 °F 94% 29.83 in 3.1 mi Calm Calm - N/A Rain Light Rain
7:30 AM 77.0 °F - 75.2 °F 94% 29.83 in 4.3 mi Calm Calm - N/A   Mostly Cloudy
8:00 AM 77.0 °F - 75.2 °F 94% 29.83 in 5.0 mi East 4.6 mph - N/A   Mostly Cloudy
8:30 AM 78.8 °F - 75.2 °F 89% 29.83 in 5.0 mi Variable 2.3 mph - N/A   Mostly Cloudy
9:00 AM 80.6 °F 87.1 °F 77.0 °F 89% 29.83 in 3.1 mi Variable 2.3 mph - N/A Rain Rain
9:30 AM 78.8 °F - 73.4 °F 83% 29.86 in 3.1 mi West 10.4 mph - N/A Rain Light Rain
10:00 AM 78.8 °F - 75.2 °F 89% 29.83 in 4.3 mi Calm Calm - N/A Rain Light Rain
10:30 AM 82.4 °F 90.9 °F 77.0 °F 84% 29.83 in 5.0 mi Variable 1.2 mph - N/A   Mostly Cloudy
11:00 AM 82.4 °F 89.5 °F 75.2 °F 79% 29.83 in 4.3 mi West 5.8 mph - N/A Rain Light Rain
11:30 AM 84.2 °F 92.3 °F 75.2 °F 74% 29.83 in 5.0 mi West 5.8 mph - N/A   Mostly Cloudy
12:00 PM 84.2 °F 94.1 °F 77.0 °F 79% 29.83 in 5.0 mi West 15.0 mph - N/A   Mostly Cloudy
12:30 PM 84.2 °F 94.1 °F 77.0 °F 79% 29.80 in 5.0 mi West 17.3 mph - N/A   Mostly Cloudy
1:00 PM 85 °F - 78 °F 76% 29.79 in 6 mi West 9.2 mph - -   Partly Cloudy
1:00 PM 86.0 °F 95.1 °F 75.2 °F 70% 29.80 in 5.0 mi West 12.7 mph - N/A   Mostly Cloudy
1:30 PM 86.0 °F 93.4 °F 73.4 °F 66% 29.80 in 5.0 mi West 19.6 mph - N/A   Mostly Cloudy
2:00 PM 86.0 °F 95.1 °F 75.2 °F 70% 29.80 in 5.0 mi West 20.7 mph - N/A   Mostly Cloudy
2:30 PM 86.0 °F 95.1 °F 75.2 °F 70% 29.77 in 5.0 mi West 20.7 mph - N/A   Mostly Cloudy
3:00 PM 86.0 °F 95.1 °F 75.2 °F 70% 29.77 in 5.0 mi West 16.1 mph - N/A   Mostly Cloudy
3:30 PM 86.0 °F 95.1 °F 75.2 °F 70% 29.77 in 5.0 mi West 19.6 mph - N/A   Mostly Cloudy
4:00 PM 84.2 °F 90.9 °F 73.4 °F 70% 29.77 in 5.0 mi West 15.0 mph - N/A   Mostly Cloudy
4:30 PM 84.2 °F 90.9 °F 73.4 °F 70% 29.74 in 5.0 mi West 18.4 mph - N/A   Mostly Cloudy
5:00 PM 84.2 °F 90.9 °F 73.4 °F 70% 29.74 in 5.0 mi WSW 16.1 mph - N/A   Mostly Cloudy
5:30 PM 84.2 °F 90.9 °F 73.4 °F 70% 29.77 in 5.0 mi West 16.1 mph - N/A   Mostly Cloudy
6:00 PM 82.4 °F 88.2 °F 73.4 °F 74% 29.74 in 5.0 mi WSW 15.0 mph - N/A   Mostly Cloudy
6:30 PM 82.4 °F 88.2 °F 73.4 °F 74% 29.74 in 5.0 mi Variable 10.4 mph - N/A   Mostly Cloudy
7:00 PM 83 °F - 76 °F 73% 29.73 in 6 mi West 17.3 mph - -   Scattered Clouds
7:00 PM 82.4 °F 88.2 °F 73.4 °F 74% 29.77 in 4.3 mi WSW 12.7 mph - N/A   Mostly Cloudy
7:30 PM 80.6 °F 85.4 °F 73.4 °F 79% 29.77 in 4.3 mi Variable 8.1 mph - N/A   Mostly Cloudy
8:00 PM 80.6 °F 86.2 °F 75.2 °F 84% 29.77 in 4.3 mi Variable 16.1 mph 25.3 mph N/A Rain Light Rain
8:30 PM 80.6 °F 85.4 °F 73.4 °F 79% 29.80 in 4.3 mi West 19.6 mph - N/A   Mostly Cloudy
9:00 PM 82.4 °F 88.2 °F 73.4 °F 74% 29.80 in 5.0 mi WSW 9.2 mph - N/A   Mostly Cloudy
9:30 PM 82.4 °F 88.2 °F 73.4 °F 74% 29.83 in 5.0 mi WSW 9.2 mph - N/A   Mostly Cloudy
10:00 PM 82.4 °F 89.5 °F 75.2 °F 79% 29.83 in 5.0 mi WSW 16.1 mph - N/A   Mostly Cloudy
10:30 PM 82.4 °F 89.5 °F 75.2 °F 79% 29.83 in 5.0 mi West 20.7 mph - N/A   Mostly Cloudy
11:00 PM 82.4 °F 88.2 °F 73.4 °F 74% 29.83 in 5.0 mi West 16.1 mph - N/A   Mostly Cloudy
11:30 PM 82.4 °F 88.2 °F 73.4 °F 74% 29.83 in 5.0 mi West 13.8 mph - N/A   Mostly Cloudy